PDT,Max TemperatureF,Mean TemperatureF,Min TemperatureF,Max Dew PointF,MeanDew PointF,Min DewpointF,Max Humidity, Mean Humidity, Min Humidity, Max Sea Level PressureIn, Mean Sea Level PressureIn, Min Sea Level PressureIn, Max VisibilityMiles, Mean VisibilityMiles, Min VisibilityMiles, Max Wind SpeedMPH, Mean Wind SpeedMPH, Max Gust SpeedMPH,PrecipitationIn, CloudCover, Events, WindDirDegrees
2013-5-1,65,44,23,23,20,15,74,45,16,30.58,30.52,30.41,10,10,10,15,6,26,0.00,0,,174
2013-5-2,73,54,34,39,28,25,70,45,19,30.58,30.42,30.26,10,10,10,23,8,30,0.00,2,,177
2013-5-3,75,62,49,40,36,32,63,43,22,30.36,30.28,30.19,10,10,10,25,14,35,0.00,0,,359
2013-5-4,79,63,46,39,36,33,65,43,20,30.32,30.19,30.05,10,10,10,20,9,25,0.00,0,,343
2013-5-5,84,64,43,39,35,32,70,44,17,30.08,29.95,29.81,10,10,10,22,10,26,0.00,0,,347
2013-5-6,86,66,45,43,38,35,66,41,16,29.91,29.81,29.68,10,10,10,13,6,17,0.00,0,,289
2013-5-7,90,69,47,51,42,36,71,44,16,29.83,29.79,29.74,10,10,10,16,6,22,0.00,0,,328
2013-5-8,89,69,49,51,44,40,74,48,21,29.97,29.92,29.85,10,10,10,13,5,18,0.00,0,,318
2013-5-9,90,71,51,53,38,33,54,35,15,30.07,30.01,29.94,10,10,10,17,7,22,0.00,0,,335
2013-5-10,91,68,45,44,40,33,76,45,14,30.13,30.07,30.00,10,10,10,13,5,17,0.00,0,,263
2013-5-11,87,69,50,51,44,40,64,43,21,30.09,30.02,29.93,10,10,10,10,4,13,0.00,0,,252
2013-5-12,77,66,54,52,45,40,72,52,31,29.96,29.92,29.88,10,10,10,18,6,24,T,1,Rain,205
2013-5-13,72,58,43,46,40,28,61,47,33,30.03,29.90,29.81,10,10,6,24,8,30,0.01,3,Rain-Thunderstorm,199
2013-5-14,68,54,40,33,29,24,70,45,20,30.15,30.08,30.01,10,10,10,15,5,21,0.00,0,,210
2013-5-15,71,55,38,36,33,31,70,47,23,30.08,29.99,29.89,10,10,10,14,6,22,0.00,3,,244
2013-5-16,72,59,46,47,43,37,72,53,33,29.94,29.90,29.85,10,10,10,21,6,25,0.00,5,,307
2013-5-17,74,59,43,47,44,40,83,57,31,29.91,29.87,29.82,10,10,10,20,7,25,T,3,Rain,49
2013-5-18,68,60,52,51,48,44,93,71,48,30.13,30.01,29.91,10,9,2,15,6,21,0.41,7,Rain,327
2013-5-19,74,62,50,49,45,41,89,61,33,30.25,30.20,30.14,10,10,10,15,5,21,0.00,6,,310
2013-5-20,76,61,45,46,43,39,82,55,27,30.26,30.10,29.84,10,10,10,18,6,24,0.00,2,,235
2013-5-21,66,56,46,53,46,40,86,69,52,29.81,29.70,29.60,10,10,8,21,5,29,0.37,6,Rain-Thunderstorm,263
2013-5-22,50,47,43,46,43,39,93,82,71,30.02,29.86,29.77,10,9,2,17,6,20,0.49,8,Rain,213
2013-5-23,60,52,41,42,39,36,93,70,42,30.04,30.01,29.98,10,10,10,9,3,,0.06,5,Rain,264
2013-5-24,64,50,36,43,38,33,89,63,36,29.98,29.96,29.93,10,10,10,25,8,29,0.00,1,,194
2013-5-25,68,52,36,42,39,34,92,65,37,30.02,29.98,29.95,10,10,10,16,5,20,0.00,2,,208
2013-5-26,72,55,38,45,40,36,85,59,33,29.99,29.93,29.87,10,10,10,13,5,21,0.00,3,,211
2013-5-27,68,59,50,50,46,40,89,65,40,29.88,29.82,29.78,10,10,6,21,6,26,0.07,7,Rain,195
2013-5-28,67,59,51,50,48,43,96,72,48,29.82,29.78,29.72,10,10,8,17,6,22,0.07,7,Rain,182
2013-5-29,60,56,51,49,46,44,83,70,57,29.84,29.73,29.68,10,10,10,14,5,18,T,7,Rain,214
2013-5-30,69,58,47,48,43,37,93,62,31,30.11,29.95,29.84,10,10,2,15,6,23,0.10,6,Rain,303
2013-5-31,72,59,45,40,36,30,71,47,22,30.24,30.20,30.13,10,10,9,15,7,17,0.00,0,,275